Weather observations for the past three days for
Idaho Falls Regional Airport
Imperial (Metric)
Date Time (mdt) Wind (mph) Vis. (mi.) Weather Sky Cond. Temperature (ºF) Relative Humidity Wind Chill (°F) Heat Index (°F) Pressure Precipitation (in)
Air Dwpt 6 hour altimeter (in) sea level (mb) 1 hr 3 hr 6 hr
Max. Min.
12 22:53 SW 10 10.00 Fair CLR 63 43 48% 30 1011.9
12 21:53 S 14 10.00 Fair CLR 73 42.1 33% 29.99 1010.7
12 20:53 S 18 G 28 10.00 Fair CLR 77 43 30% 78 29.96 1009.7
12 19:53 S 18 G 29 10.00 Fair CLR 81 42.1 25% 79 29.96 1009.7
12 18:53 S 21 G 30 10.00 Fair and Breezy CLR 84 42.1 23% 81 29.96 1009.9
12 17:53 S 24 G 37 10.00 Fair and Breezy CLR 84.9 41 87.1 75.9 21% 82 29.98 1010.6
12 16:53 S 22 G 37 10.00 Fair and Breezy CLR 86 43 22% 83 29.99 1010.7
12 15:53 S 25 G 36 10.00 Fair and Breezy CLR 84.9 45 25% 82 30.01 1011.6
12 14:53 SW 20 G 33 10.00 Fair CLR 84 46.9 27% 82 30.02 1012.0
12 13:53 S 23 G 33 10.00 Fair and Breezy CLR 82.9 46.9 28% 81 30.05 1012.7
12 12:53 S 20 G 29 10.00 Fair CLR 80.1 50 35% 80 30.06 1013.2
12 11:53 SW 20 G 29 10.00 Fair CLR 75.9 48 75.9 55 37% 78 30.06 1013.6
12 10:53 SW 20 G 26 10.00 Fair CLR 73 48 41% 30.07 1013.9
12 09:53 SW 21 10.00 Fair and Breezy CLR 71.1 46 41% 30.07 1013.6
12 08:53 SW 15 10.00 Fair CLR 69.1 48 47% 30.05 1012.8
12 07:53 S 14 10.00 Fair CLR 64 46 52% 30.04 1012.5
12 06:53 SW 7 10.00 Fair CLR 59 48 67% 30.04 1012.4
12 05:53 SW 10 10.00 Fair CLR 55 46 64 55 72% 30.02 1012.1
12 04:53 SW 10 10.00 Fair CLR 59 46 62% 30 1011.3
12 03:53 SW 9 10.00 Fair CLR 57 44.1 62% 30 1011.2
12 02:53 SW 9 10.00 Fair CLR 57 44.1 62% 29.99 1011.2
12 01:53 SW 8 10.00 Fair CLR 60.1 45 58% 29.99 1011.0
12 00:53 SW 12 10.00 Fair CLR 62.1 46 56% 29.99 1011.0
11 23:53 SW 12 10.00 Fair CLR 64 46 84.9 64 52% 29.98 1011.0
11 22:53 SW 9 10.00 Fair CLR 64.9 45 49% 29.97 1010.4
11 21:53 SW 10 10.00 Fair CLR 70 45 41% 29.96 1010.0
11 20:53 S 12 10.00 Fair CLR 78.1 44.1 30% 78 29.94 1009.5
11 19:53 S 18 G 29 10.00 Fair CLR 82 41 23% 80 29.94 1009.4
11 18:53 S 20 G 32 10.00 Fair CLR 84 41 22% 81 29.95 1009.9
11 17:53 S 23 G 33 10.00 Fair and Breezy CLR 84 41 86 72 22% 81 29.97 1010.6
11 16:53 S 23 G 30 10.00 Fair and Breezy CLR 84.9 41 21% 82 29.99 1011.4
11 15:53 S 18 G 28 10.00 Fair CLR 84 43 24% 81 30.02 1012.1
11 14:53 S 16 G 24 10.00 Fair CLR 81 44.1 27% 80 30.05 1013.5
11 13:53 SW 12 G 24 10.00 Fair CLR 80.1 44.1 28% 79 30.07 1014.1
11 12:53 SW 15 G 22 10.00 Fair CLR 77 44.1 31% 78 30.09 1014.3
11 11:53 W 9 10.00 Fair CLR 72 44.1 73.9 48 37% 30.11 1015.2
11 10:53 SW 15 10.00 Fair CLR 72 45 38% 30.11 1015.3
11 09:53 SW 15 10.00 Fair CLR 68 46 45% 30.11 1015.4
11 08:53 SW 14 10.00 Fair CLR 61 44.1 54% 30.11 1015.7
11 07:53 SW 12 10.00 Fair CLR 57.9 42.1 56% 30.1 1015.5
11 06:53 SW 3 10.00 Fair CLR 52 41 66% 30.09 1015.3
11 05:53 SW 5 10.00 Fair CLR 53.1 37.9 66.9 51.1 57% 30.08 1014.7
11 04:53 SW 6 10.00 Fair CLR 52 39 61% 30.07 1014.5
11 03:53 SW 7 10.00 Fair CLR 55 39 55% 30.07 1014.3
11 02:53 SW 6 10.00 Fair CLR 55 39.9 57% 30.07 1014.3
11 01:53 SW 9 10.00 Fair CLR 57.9 39.9 51% 30.06 1013.9
11 00:53 SW 13 10.00 Fair CLR 66 37.9 36% 30.05 1013.2
10 23:53 S 14 10.00 Fair CLR 66.9 37.9 80.1 66.9 35% 30.05 1013.4
10 22:53 S 14 G 24 10.00 Fair CLR 68 39 35% 30.05 1013.4
10 21:53 S 16 10.00 Fair CLR 70 41 35% 30.04 1013.2
10 20:53 S 17 G 26 10.00 Fair CLR 73 39.9 30% 30.02 1012.4
10 19:53 S 18 G 28 10.00 Fair CLR 75.9 39.9 27% 77 30.01 1012.0
10 18:53 S 20 G 29 10.00 Fair CLR 78.1 42.1 28% 78 30.01 1012.2
10 17:53 S 21 G 29 10.00 Fair and Breezy CLR 80.1 43 81 69.1 27% 79 30.02 1012.3
10 16:53 SW 18 G 25 10.00 Fair CLR 79 44.1 29% 79 30.04 1012.8
10 15:53 S 17 G 24 10.00 Fair CLR 79 48 34% 79 30.05 1013.4
10 14:53 S 17 G 26 10.00 Fair CLR 77 48.9 37% 78 30.06 1013.6
10 13:53 S 13 G 22 10.00 Partly Cloudy SCT045 SCT055 75.9 52 43% 78 30.08 1014.2
10 12:53 SW 10 G 16 10.00 Fair CLR 73 53.1 50% 30.1 1015.1
10 11:53 SW 8 10.00 Fair CLR 70 53.1 70 55.9 55% 30.1 1015.8
10 10:53 S 10 10.00 A Few Clouds FEW027 68 53.1 59% 30.12 1016.1
10 09:53 SW 14 10.00 Fair CLR 64 51.1 63% 30.11 1016.3
10 08:53 SW 14 10.00 Fair CLR 63 51.1 65% 30.1 1015.9
10 07:53 SW 13 10.00 Fair CLR 61 51.1 70% 30.08 1015.3
10 06:53 SW 13 10.00 Fair CLR 57 51.1 81% 30.08 1014.6
10 05:53 SW 15 10.00 A Few Clouds FEW120 57.9 51.1 64.9 57.9 78% 30.05 1013.8
10 04:53 SW 13 10.00 Fair CLR 59 51.1 75% 30.02 1011.7
10 03:53 SW 17 G 26 10.00 Fair CLR 59 53.1 81% 30.01 1011.0
10 02:53 SW 18 10.00 Fair CLR 62.1 54 75% 29.99 1010.2
10 01:53 S 14 10.00 Fair CLR 64 53.1 68% 30 1010.7
10 00:53 Calm 10.00 Fair CLR 63 55.9 78% 30 1011.1
09 23:53 W 10 10.00 Fair CLR 59 55 75.9 59 87% 29.99 1011.3 0.09
Date Time (mdt) Wind (mph) Vis. (mi.) Weather Sky Cond. Air Dwpt Max. Min. Relative Humidity Wind Chill (°F) Heat Index (°F) altimeter (in) sea level (mb) 1 hr 3 hr 6 hr
6 hour
Temperature (ºF) Pressure Precipitation (in)